Find Gao Fen 12-03

NORAD ID: 52912 Int'l Des: 2022-069 Owner: ZLZB Country: CN operational
LEOCIRCULARRETROGRADESSO

リアルタイム位置

3D地球を読み込み中...

Gao Fen 12-03について

説明を読み込み中...

次回通過

Passes for default location (London). Set your location on the main map for personalized predictions.

高度履歴

Loading altitude history...

軌道要素

1 52912U 22069A 26106.25787558 .00000792 00000-0 11161-3 0 9991
2 52912 97.8360 355.6694 0001764 50.9935 309.1434 14.79934717205453
Epoch: Apr 16, 2026 • Age: 10 hours

現在のステータス

高度 634.8 km
速度 7.54 km/s
衛星直下点 -13.86°S, 84.74°W
打ち上げ日 Jun 27, 2022
運用期間 3.8 years
タイプ other

技術仕様

分類 Payload
質量 3000.00 kg
乾燥質量 3000.00 kg
総質量 3000.00 kg
長さ 2.00 m
直径 2.00 m
スパン 8.00 m
形状 Box + 3 Pan
製造者 SAST
バスタイプ CS-L3000B
フェーズステータス In Orbit
所有者/国 ZLZB/CN

Most Searched